| time (UTC) | temp F | wind direction | speed MPH | gust MPH | rain 1hr in | rain 24hr in | rain mn in | humidity % | barometer mb |
| 20260505235542 | 73 | 0 | 2.0 | 7.0 | 0.00 | 0.15 | 0.15 | 86 | 1018.6 |
| 20260505235042 | 73 | 186 | 3.0 | 7.0 | 0.00 | 0.15 | 0.15 | 86 | 1018.7 |
| 20260505234555 | 72 | 310 | 1.0 | 6.0 | 0.00 | 0.15 | 0.15 | 87 | 1018.7 |
| 20260505234044 | 72 | 188 | 2.0 | 6.0 | 0.00 | 0.15 | 0.15 | 86 | 1018.8 |
| 20260505233548 | 72 | 0 | 1.0 | 5.0 | 0.00 | 0.15 | 0.15 | 86 | 1018.8 |
| 20260505233056 | 72 | 188 | 0.0 | 3.0 | 0.00 | 0.15 | 0.15 | 87 | 1018.8 |
| 20260505232544 | 72 | 0 | 0.0 | 3.0 | 0.00 | 0.15 | 0.15 | 87 | 1018.8 |
| 20260505232050 | 72 | 105 | 0.0 | 3.0 | 0.00 | 0.15 | 0.15 | 89 | 1018.8 |
| 20260505231554 | 71 | 0 | 0.0 | 3.0 | 0.00 | 0.15 | 0.15 | 89 | 1018.8 |
| 20260505231044 | 71 | 203 | 0.0 | 4.0 | 0.00 | 0.15 | 0.15 | 90 | 1018.9 |
| 20260505230546 | 71 | 98 | 2.0 | 6.0 | 0.00 | 0.15 | 0.15 | 90 | 1018.9 |
| 20260505230112 | 70 | 188 | 1.0 | 6.0 | 0.00 | 0.15 | 0.15 | 91 | 1018.9 |
| 20260505225544 | 70 | 176 | 2.0 | 3.0 | 0.00 | 0.15 | 0.15 | 91 | 1018.9 |
| 20260505225043 | 70 | 191 | 1.0 | 3.0 | 0.00 | 0.15 | 0.15 | 92 | 1018.9 |
| 20260505224552 | 70 | 182 | 1.0 | 3.0 | 0.00 | 0.15 | 0.15 | 92 | 1018.9 |
| 20260505224044 | 70 | 114 | 1.0 | 1.0 | 0.00 | 0.15 | 0.15 | 93 | 1018.9 |
| 20260505223545 | 70 | 92 | 0.0 | 2.0 | 0.00 | 0.15 | 0.15 | 97 | 1018.8 |
| 20260505223058 | 69 | 359 | 0.0 | 2.0 | 0.00 | 0.15 | 0.15 | 97 | 1019.0 |
| 20260505222544 | 69 | 112 | 0.0 | 1.0 | 0.00 | 0.15 | 0.15 | 97 | 1018.9 |
| 20260505222047 | 69 | 84 | 0.0 | 1.0 | 0.00 | 0.15 | 0.15 | 98 | 1018.8 |
| 20260505221559 | 68 | 84 | 0.0 | 1.0 | 0.00 | 0.15 | 0.15 | 98 | 1018.8 |
| 20260505221044 | 68 | 0 | 0.0 | 1.0 | 0.00 | 0.15 | 0.15 | 98 | 1018.8 |
| 20260505220544 | 68 | 0 | 0.0 | 1.0 | 0.00 | 0.15 | 0.15 | 99 | 1018.8 |
| 20260505220055 | 67 | 83 | 0.0 | 1.0 | 0.00 | 0.15 | 0.15 | 98 | 1018.7 |
| 20260505215544 | 67 | 0 | 0.0 | 1.0 | 0.00 | 0.15 | 0.15 | 98 | 1018.7 |
| 20260505215044 | 66 | 84 | 0.0 | 1.0 | 0.00 | 0.15 | 0.15 | 98 | 1018.7 |
| 20260505214549 | 66 | 0 | 0.0 | 1.0 | 0.00 | 0.15 | 0.15 | 98 | 1018.8 |
| 20260505214044 | 66 | 0 | 0.0 | 1.0 | 0.00 | 0.15 | 0.15 | 98 | 1018.6 |
| 20260505213543 | 66 | 0 | 0.0 | 1.0 | 0.00 | 0.15 | 0.15 | 98 | 1018.6 |
| 20260505213054 | 66 | 0 | 0.0 | 1.0 | 0.00 | 0.15 | 0.15 | 98 | 1018.6 |
| 20260505212547 | 66 | 0 | 0.0 | 1.0 | 0.00 | 0.15 | 0.15 | 98 | 1018.6 |
| 20260505212044 | 66 | 0 | 0.0 | 1.0 | 0.00 | 0.15 | 0.15 | 99 | 1018.6 |
| 20260505211601 | 66 | 0 | 0.0 | 0.0 | 0.00 | 0.15 | 0.15 | 99 | 1018.6 |
| 20260505211044 | 65 | 0 | 0.0 | 0.0 | 0.00 | 0.15 | 0.15 | 98 | 1018.6 |
| 20260505210543 | 65 | 0 | 0.0 | 0.0 | 0.00 | 0.15 | 0.15 | 98 | 1018.6 |
| 20260505210056 | 64 | 0 | 0.0 | 0.0 | 0.00 | 0.15 | 0.15 | 98 | 1018.5 |
| 20260505205544 | 64 | 0 | 0.0 | 0.0 | 0.00 | 0.15 | 0.15 | 98 | 1018.5 |
| 20260505205045 | 64 | 0 | 0.0 | 1.0 | 0.00 | 0.14 | 0.14 | 98 | 1018.4 |
| 20260505204552 | 64 | 0 | 0.0 | 1.0 | 0.00 | 0.14 | 0.14 | 98 | 1018.3 |
| 20260505204044 | 64 | 0 | 0.0 | 0.0 | 0.00 | 0.14 | 0.14 | 98 | 1018.1 |
| 20260505203547 | 64 | 0 | 0.0 | 0.0 | 0.00 | 0.14 | 0.14 | 98 | 1018.2 |
| 20260505203102 | 64 | 0 | 0.0 | 0.0 | 0.00 | 0.14 | 0.14 | 98 | 1018.0 |
| 20260505202544 | 64 | 0 | 0.0 | 0.0 | 0.00 | 0.14 | 0.14 | 98 | 1017.9 |
| 20260505202042 | 64 | 0 | 0.0 | 0.0 | 0.00 | 0.14 | 0.14 | 98 | 1017.8 |
| 20260505201555 | 64 | 0 | 0.0 | 0.0 | 0.00 | 0.14 | 0.14 | 98 | 1017.8 |
| 20260505201045 | 64 | 0 | 0.0 | 0.0 | 0.00 | 0.14 | 0.14 | 98 | 1017.7 |
| 20260505200543 | 64 | 0 | 0.0 | 0.0 | 0.00 | 0.14 | 0.14 | 98 | 1017.6 |
| 20260505200107 | 64 | 0 | 0.0 | 1.0 | 0.00 | 0.14 | 0.14 | 97 | 1017.7 |
| 20260505195548 | 64 | 0 | 0.0 | 1.0 | 0.00 | 0.14 | 0.14 | 98 | 1017.6 |
| 20260505195047 | 64 | 0 | 0.0 | 0.0 | 0.00 | 0.14 | 0.14 | 97 | 1017.8 |
| 20260505194549 | 64 | 0 | 0.0 | 0.0 | 0.00 | 0.14 | 0.14 | 97 | 1017.7 |
| 20260505194043 | 64 | 0 | 0.0 | 0.0 | 0.00 | 0.14 | 0.14 | 97 | 1017.6 |
| 20260505193542 | 65 | 0 | 0.0 | 0.0 | 0.00 | 0.14 | 0.14 | 97 | 1017.5 |
| 20260505193102 | 65 | 0 | 0.0 | 1.0 | 0.00 | 0.14 | 0.14 | 97 | 1017.6 |
| 20260505192546 | 65 | 0 | 0.0 | 1.0 | 0.00 | 0.14 | 0.14 | 97 | 1017.5 |
| 20260505192042 | 65 | 0 | 0.0 | 1.0 | 0.00 | 0.14 | 0.14 | 98 | 1017.5 |
| 20260505191607 | 65 | 0 | 0.0 | 1.0 | 0.00 | 0.14 | 0.14 | 97 | 1017.6 |
| 20260505191046 | 65 | 0 | 0.0 | 1.0 | 0.00 | 0.14 | 0.14 | 98 | 1017.7 |
| 20260505190544 | 65 | 0 | 0.0 | 1.0 | 0.00 | 0.14 | 0.14 | 98 | 1017.6 |
| 20260505190051 | 65 | 0 | 0.0 | 0.0 | 0.00 | 0.14 | 0.14 | 98 | 1017.6 |
| 20260505185543 | 65 | 0 | 0.0 | 0.0 | 0.00 | 0.14 | 0.14 | 98 | 1017.7 |
| 20260505185043 | 65 | 0 | 0.0 | 0.0 | 0.00 | 0.14 | 0.14 | 98 | 1017.7 |
| 20260505184551 | 65 | 0 | 0.0 | 0.0 | 0.00 | 0.14 | 0.14 | 97 | 1017.6 |
| 20260505184042 | 65 | 0 | 0.0 | 0.0 | 0.00 | 0.14 | 0.14 | 98 | 1017.7 |
| 20260505183541 | 65 | 0 | 0.0 | 0.0 | 0.00 | 0.14 | 0.14 | 98 | 1017.5 |
| 20260505183050 | 65 | 0 | 0.0 | 0.0 | 0.00 | 0.14 | 0.14 | 98 | 1017.6 |
| 20260505182544 | 65 | 0 | 0.0 | 0.0 | 0.00 | 0.14 | 0.14 | 97 | 1017.4 |
| 20260505182042 | 65 | 0 | 0.0 | 0.0 | 0.00 | 0.14 | 0.14 | 97 | 1017.5 |
| 20260505181559 | 65 | 0 | 0.0 | 0.0 | 0.00 | 0.14 | 0.14 | 97 | 1017.5 |
| 20260505181043 | 65 | 0 | 0.0 | 0.0 | 0.00 | 0.14 | 0.14 | 97 | 1017.4 |
| 20260505180541 | 65 | 0 | 0.0 | 0.0 | 0.00 | 0.14 | 0.14 | 97 | 1017.4 |
| 20260505180053 | 65 | 0 | 0.0 | 0.0 | 0.00 | 0.14 | 0.14 | 97 | 1017.5 |
| 20260505175542 | 65 | 0 | 0.0 | 1.0 | 0.00 | 0.15 | 0.14 | 97 | 1017.3 |
| 20260505175046 | 65 | 0 | 0.0 | 1.0 | 0.00 | 0.15 | 0.14 | 97 | 1017.4 |
| 20260505174551 | 65 | 236 | 0.0 | 1.0 | 0.01 | 0.15 | 0.14 | 97 | 1017.4 |
| 20260505174042 | 65 | 0 | 0.0 | 1.0 | 0.01 | 0.15 | 0.14 | 97 | 1017.3 |
| 20260505173543 | 65 | 0 | 0.0 | 1.0 | 0.01 | 0.15 | 0.14 | 97 | 1017.3 |
| 20260505173056 | 65 | 0 | 0.0 | 1.0 | 0.01 | 0.15 | 0.14 | 97 | 1017.4 |
| 20260505172543 | 65 | 0 | 0.0 | 1.0 | 0.01 | 0.15 | 0.14 | 97 | 1017.3 |
| 20260505172043 | 65 | 0 | 0.0 | 0.0 | 0.01 | 0.15 | 0.14 | 97 | 1017.3 |
| 20260505171556 | 65 | 0 | 0.0 | 1.0 | 0.01 | 0.15 | 0.14 | 97 | 1017.3 |
| 20260505171044 | 65 | 0 | 0.0 | 1.0 | 0.01 | 0.15 | 0.14 | 97 | 1017.4 |
| 20260505170544 | 65 | 0 | 0.0 | 1.0 | 0.01 | 0.15 | 0.14 | 97 | 1017.5 |
| 20260505170055 | 65 | 0 | 0.0 | 0.0 | 0.02 | 0.15 | 0.14 | 97 | 1017.6 |
| 20260505165545 | 65 | 0 | 0.0 | 0.0 | 0.02 | 0.15 | 0.14 | 97 | 1017.7 |
| 20260505165044 | 65 | 0 | 0.0 | 0.0 | 0.02 | 0.14 | 0.14 | 97 | 1017.7 |
| 20260505164554 | 65 | 0 | 0.0 | 0.0 | 0.02 | 0.14 | 0.13 | 97 | 1017.8 |
| 20260505164042 | 65 | 0 | 0.0 | 0.0 | 0.04 | 0.14 | 0.13 | 97 | 1017.8 |
| 20260505163544 | 65 | 338 | 0.0 | 0.0 | 0.10 | 0.14 | 0.13 | 97 | 1017.9 |
| 20260505163059 | 66 | 0 | 0.0 | 0.0 | 0.12 | 0.14 | 0.13 | 96 | 1017.9 |
| 20260505162543 | 66 | 0 | 0.0 | 1.0 | 0.13 | 0.14 | 0.13 | 96 | 1017.9 |
| 20260505162044 | 66 | 0 | 0.0 | 1.0 | 0.13 | 0.14 | 0.13 | 96 | 1017.9 |
| 20260505161551 | 66 | 342 | 0.0 | 1.0 | 0.13 | 0.14 | 0.13 | 96 | 1017.9 |
| 20260505161045 | 66 | 0 | 0.0 | 1.0 | 0.13 | 0.14 | 0.13 | 96 | 1018.0 |
| 20260505160544 | 66 | 0 | 0.0 | 1.0 | 0.13 | 0.14 | 0.13 | 96 | 1018.0 |
| 20260505153052 | 67 | 0 | 0.0 | 2.0 | 0.00 | 0.01 | 0.00 | 96 | 1018.3 |
| 20260505152548 | 67 | 101 | 0.0 | 2.0 | 0.00 | 0.00 | 0.00 | 96 | 1018.3 |
| 20260505152043 | 67 | 0 | 0.0 | 2.0 | 0.00 | 0.00 | 0.00 | 96 | 1018.3 |
| 20260505151556 | 67 | 0 | 0.0 | 2.0 | 0.00 | 0.00 | 0.00 | 96 | 1018.4 |
| 20260505151043 | 67 | 0 | 0.0 | 1.0 | 0.00 | 0.00 | 0.00 | 96 | 1018.3 |
| 20260505150544 | 67 | 0 | 0.0 | 2.0 | 0.00 | 0.00 | 0.00 | 96 | 1018.3 |
| 20260505150106 | 67 | 269 | 0.0 | 2.0 | 0.00 | 0.00 | 0.00 | 96 | 1018.3 |
| 20260505140544 | 66 | 306 | 0.0 | 0.0 | 0.00 | 0.00 | 0.00 | 96 | 1018.6 |
| 20260505124558 | 65 | 0 | 0.0 | 1.0 | 0.00 | 0.00 | 0.00 | 95 | 1018.6 |
| 20260505124044 | 66 | 306 | 0.0 | 1.0 | 0.00 | 0.00 | 0.00 | 95 | 1018.5 |
| 20260505123545 | 66 | 305 | 0.0 | 1.0 | 0.00 | 0.00 | 0.00 | 95 | 1018.7 |
| 20260505123057 | 66 | 0 | 0.0 | 0.0 | 0.00 | 0.00 | 0.00 | 95 | 1018.4 |
| 20260505122545 | 66 | 0 | 0.0 | 0.0 | 0.00 | 0.00 | 0.00 | 95 | 1018.7 |
| 20260505122044 | 66 | 0 | 0.0 | 1.0 | 0.00 | 0.00 | 0.00 | 95 | 1018.7 |
| 20260505121559 | 66 | 0 | 0.0 | 1.0 | 0.00 | 0.00 | 0.00 | 95 | 1018.6 |
| 20260505121044 | 66 | 305 | 0.0 | 1.0 | 0.00 | 0.00 | 0.00 | 95 | 1018.8 |
| 20260505120543 | 66 | 0 | 0.0 | 1.0 | 0.00 | 0.00 | 0.00 | 95 | 1018.8 |
| 20260505120104 | 66 | 0 | 0.0 | 1.0 | 0.00 | 0.00 | 0.00 | 95 | 1018.6 |
| 20260505115544 | 66 | 0 | 0.0 | 1.0 | 0.00 | 0.00 | 0.00 | 95 | 1018.5 |
| 20260505115044 | 66 | 0 | 0.0 | 1.0 | 0.00 | 0.00 | 0.00 | 95 | 1018.5 |
| 20260505114552 | 66 | 305 | 0.0 | 0.0 | 0.00 | 0.00 | 0.00 | 95 | 1018.4 |
| 20260505114044 | 66 | 0 | 0.0 | 0.0 | 0.00 | 0.00 | 0.00 | 95 | 1018.1 |
| 20260505113543 | 66 | 0 | 0.0 | 1.0 | 0.00 | 0.00 | 0.00 | 95 | 1018.5 |
| 20260505113050 | 66 | 0 | 0.0 | 1.0 | 0.00 | 0.00 | 0.00 | 95 | 1018.8 |
| 20260505112545 | 66 | 305 | 0.0 | 0.0 | 0.00 | 0.00 | 0.00 | 95 | 1018.8 |
| 20260505112043 | 66 | 0 | 0.0 | 0.0 | 0.00 | 0.00 | 0.00 | 95 | 1018.5 |
| 20260505111552 | 66 | 0 | 0.0 | 0.0 | 0.00 | 0.00 | 0.00 | 94 | 1018.6 |
| 20260505111045 | 66 | 0 | 0.0 | 1.0 | 0.00 | 0.00 | 0.00 | 95 | 1018.6 |
| 20260505110544 | 66 | 0 | 0.0 | 1.0 | 0.00 | 0.00 | 0.00 | 95 | 1018.7 |
| 20260505102043 | 67 | 0 | 0.0 | 1.0 | 0.00 | 0.00 | 0.00 | 93 | 1018.2 |
| 20260505101552 | 67 | 0 | 0.0 | 0.0 | 0.00 | 0.00 | 0.00 | 93 | 1018.2 |
| 20260505101045 | 67 | 0 | 0.0 | 0.0 | 0.00 | 0.00 | 0.00 | 93 | 1018.3 |
| 20260505100546 | 67 | 0 | 0.0 | 1.0 | 0.00 | 0.00 | 0.00 | 93 | 1018.1 |
| 20260505100053 | 67 | 0 | 0.0 | 1.0 | 0.00 | 0.00 | 0.00 | 93 | 1018.0 |
| 20260505095545 | 67 | 0 | 0.0 | 1.0 | 0.00 | 0.00 | 0.00 | 92 | 1017.9 |
| 20260505095042 | 68 | 0 | 0.0 | 0.0 | 0.00 | 0.00 | 0.00 | 92 | 1017.9 |
| 20260505094601 | 68 | 0 | 0.0 | 0.0 | 0.00 | 0.00 | 0.00 | 92 | 1017.8 |
| 20260505094044 | 68 | 0 | 0.0 | 0.0 | 0.00 | 0.00 | 0.00 | 92 | 1017.9 |
| 20260505093547 | 68 | 0 | 0.0 | 0.0 | 0.00 | 0.00 | 0.00 | 91 | 1017.9 |
| 20260505093057 | 68 | 0 | 0.0 | 0.0 | 0.00 | 0.00 | 0.00 | 91 | 1018.0 |
| 20260505092545 | 68 | 0 | 0.0 | 2.0 | 0.00 | 0.00 | 0.00 | 91 | 1018.1 |
| 20260505092044 | 69 | 0 | 0.0 | 2.0 | 0.00 | 0.00 | 0.00 | 90 | 1018.1 |
| 20260505091601 | 69 | 308 | 0.0 | 2.0 | 0.00 | 0.00 | 0.00 | 90 | 1018.0 |
| 20260505091044 | 69 | 0 | 0.0 | 1.0 | 0.00 | 0.00 | 0.00 | 90 | 1017.8 |
| 20260505090543 | 69 | 0 | 0.0 | 0.0 | 0.00 | 0.00 | 0.00 | 90 | 1017.9 |
| 20260505090104 | 69 | 0 | 0.0 | 0.0 | 0.00 | 0.00 | 0.00 | 89 | 1017.8 |
| 20260505085544 | 69 | 0 | 0.0 | 0.0 | 0.00 | 0.00 | 0.00 | 89 | 1017.8 |
| 20260505085043 | 70 | 0 | 0.0 | 0.0 | 0.00 | 0.00 | 0.00 | 89 | 1017.8 |
| 20260505084558 | 70 | 0 | 0.0 | 0.0 | 0.00 | 0.00 | 0.00 | 88 | 1017.7 |
| 20260505084043 | 70 | 0 | 0.0 | 1.0 | 0.00 | 0.00 | 0.00 | 88 | 1017.6 |
| 20260505083544 | 70 | 0 | 0.0 | 1.0 | 0.00 | 0.00 | 0.00 | 87 | 1017.5 |
| 20260505083100 | 70 | 0 | 0.0 | 2.0 | 0.00 | 0.00 | 0.00 | 88 | 1017.2 |
| 20260505082543 | 71 | 314 | 0.0 | 2.0 | 0.00 | 0.00 | 0.00 | 87 | 1017.1 |
| 20260505082044 | 71 | 263 | 0.0 | 1.0 | 0.00 | 0.00 | 0.00 | 87 | 1017.1 |
| 20260505081601 | 71 | 0 | 0.0 | 1.0 | 0.00 | 0.00 | 0.00 | 87 | 1017.1 |
| 20260505081045 | 71 | 0 | 0.0 | 1.0 | 0.00 | 0.00 | 0.00 | 86 | 1016.7 |
| 20260505080546 | 71 | 0 | 0.0 | 1.0 | 0.00 | 0.00 | 0.00 | 86 | 1016.6 |
| 20260505080053 | 71 | 0 | 0.0 | 1.0 | 0.00 | 0.00 | 0.00 | 86 | 1016.7 |
| 20260505075544 | 71 | 0 | 0.0 | 1.0 | 0.00 | 0.00 | 0.00 | 86 | 1016.6 |
| 20260505075046 | 71 | 0 | 0.0 | 1.0 | 0.00 | 0.00 | 0.00 | 86 | 1016.5 |
| 20260505074554 | 71 | 0 | 0.0 | 1.0 | 0.00 | 0.00 | 0.00 | 85 | 1016.6 |
| 20260505074046 | 71 | 0 | 0.0 | 1.0 | 0.00 | 0.00 | 0.00 | 85 | 1016.7 |
| 20260505073545 | 72 | 0 | 0.0 | 1.0 | 0.00 | 0.00 | 0.00 | 84 | 1016.8 |
| 20260505073104 | 72 | 0 | 0.0 | 1.0 | 0.00 | 0.00 | 0.00 | 84 | 1016.5 |
| 20260505072544 | 72 | 0 | 0.0 | 1.0 | 0.00 | 0.00 | 0.00 | 83 | 1016.4 |
| 20260505072044 | 72 | 0 | 0.0 | 1.0 | 0.00 | 0.00 | 0.00 | 83 | 1016.4 |
| 20260505071556 | 72 | 0 | 0.0 | 1.0 | 0.00 | 0.00 | 0.00 | 82 | 1016.4 |
| 20260505071044 | 73 | 0 | 0.0 | 1.0 | 0.00 | 0.00 | 0.00 | 82 | 1016.4 |
| 20260505070545 | 73 | 0 | 0.0 | 1.0 | 0.00 | 0.00 | 0.00 | 81 | 1016.3 |
| 20260505070148 | 73 | 0 | 0.0 | 5.0 | 0.00 | 0.00 | 0.00 | 81 | 1016.3 |
| 20260505065544 | 73 | 0 | 0.0 | 5.0 | 0.00 | 0.00 | 0.00 | 81 | 1016.2 |
| 20260505065046 | 73 | 0 | 0.0 | 4.0 | 0.00 | 0.00 | 0.00 | 80 | 1016.2 |
| 20260505064555 | 74 | 0 | 0.0 | 4.0 | 0.00 | 0.00 | 0.00 | 80 | 1016.3 |
| 20260505064043 | 74 | 0 | 0.0 | 4.0 | 0.00 | 0.00 | 0.00 | 80 | 1016.1 |
| 20260505063543 | 74 | 107 | 0.0 | 4.0 | 0.00 | 0.00 | 0.00 | 80 | 1016.1 |
| 20260505063055 | 74 | 340 | 1.0 | 4.0 | 0.00 | 0.00 | 0.00 | 79 | 1016.1 |
| 20260505062545 | 75 | 316 | 0.0 | 3.0 | 0.00 | 0.00 | 0.00 | 79 | 1016.2 |
| 20260505062045 | 75 | 0 | 0.0 | 4.0 | 0.00 | 0.00 | 0.00 | 79 | 1016.3 |
| 20260505061553 | 75 | 115 | 0.0 | 4.0 | 0.00 | 0.00 | 0.00 | 79 | 1016.2 |
| 20260505061046 | 75 | 0 | 1.0 | 4.0 | 0.00 | 0.00 | 0.00 | 78 | 1016.0 |
| 20260505060543 | 75 | 0 | 0.0 | 4.0 | 0.00 | 0.00 | 0.00 | 78 | 1016.0 |
| 20260505060055 | 75 | 0 | 1.0 | 5.0 | 0.00 | 0.00 | 0.00 | 77 | 1015.9 |
| 20260505055545 | 75 | 0 | 2.0 | 5.0 | 0.00 | 0.00 | 0.00 | 77 | 1016.0 |
| 20260505055044 | 76 | 111 | 1.0 | 5.0 | 0.00 | 0.00 | 0.00 | 76 | 1016.0 |
| 20260505054557 | 76 | 65 | 1.0 | 5.0 | 0.00 | 0.00 | 0.00 | 76 | 1015.8 |
| 20260505054043 | 76 | 84 | 1.0 | 8.0 | 0.00 | 0.00 | 0.00 | 76 | 1015.9 |
| 20260505053545 | 77 | 90 | 2.0 | 9.0 | 0.00 | 0.00 | 0.00 | 75 | 1015.7 |
| 20260505053056 | 77 | 111 | 3.0 | 9.0 | 0.00 | 0.00 | 0.00 | 73 | 1015.6 |
| 20260505052543 | 79 | 66 | 1.0 | 6.0 | 0.00 | 0.00 | 0.00 | 72 | 1015.8 |
| 20260505052043 | 79 | 0 | 0.0 | 1.0 | 0.00 | 0.00 | 0.00 | 71 | 1015.8 |
| 20260505051552 | 79 | 32 | 0.0 | 1.0 | 0.00 | 0.00 | 0.00 | 70 | 1015.9 |
| 20260505051044 | 79 | 0 | 0.0 | 1.0 | 0.00 | 0.00 | 0.00 | 69 | 1015.8 |
| 20260505050545 | 80 | 81 | 0.0 | 3.0 | 0.00 | 0.00 | 0.00 | 69 | 1016.0 |
| 20260505041553 | 81 | 326 | 0.0 | 2.0 | 0.00 | 0.00 | 0.00 | 66 | 1015.7 |
| 20260505041045 | 81 | 319 | 0.0 | 2.0 | 0.00 | 0.00 | 0.00 | 65 | 1015.6 |
| 20260505040544 | 81 | 0 | 1.0 | 2.0 | 0.00 | 0.00 | 0.00 | 66 | 1015.6 |
| 20260505040057 | 80 | 0 | 0.0 | 3.0 | 0.00 | 0.00 | 0.00 | 68 | 1015.5 |
| 20260505035544 | 80 | 274 | 0.0 | 3.0 | 0.00 | 0.00 | 0.00 | 68 | 1015.6 |
| 20260505035043 | 80 | 217 | 1.0 | 3.0 | 0.00 | 0.00 | 0.00 | 66 | 1015.7 |
| 20260505034553 | 81 | 302 | 0.0 | 2.0 | 0.00 | 0.00 | 0.00 | 66 | 1015.7 |
| 20260505034044 | 80 | 333 | 0.0 | 2.0 | 0.00 | 0.00 | 0.00 | 68 | 1015.7 |
| 20260505033542 | 79 | 0 | 1.0 | 2.0 | 0.00 | 0.00 | 0.00 | 68 | 1015.6 |
| 20260505033048 | 80 | 304 | 1.0 | 6.0 | 0.00 | 0.00 | 0.00 | 67 | 1015.7 |
| 20260505032544 | 79 | 0 | 2.0 | 6.0 | 0.00 | 0.00 | 0.00 | 69 | 1015.7 |
| 20260505032041 | 79 | 162 | 2.0 | 6.0 | 0.00 | 0.00 | 0.00 | 70 | 1015.8 |
| 20260505031557 | 79 | 202 | 0.0 | 3.0 | 0.00 | 0.00 | 0.00 | 70 | 1015.7 |
| 20260505031045 | 80 | 120 | 1.0 | 3.0 | 0.00 | 0.00 | 0.00 | 70 | 1015.7 |
| 20260505030543 | 80 | 226 | 0.0 | 3.0 | 0.00 | 0.00 | 0.00 | 71 | 1015.8 |
| 20260505030058 | 79 | 309 | 1.0 | 3.0 | 0.00 | 0.00 | 0.00 | 71 | 1015.9 |
| 20260505025544 | 78 | 340 | 1.0 | 3.0 | 0.00 | 0.00 | 0.00 | 72 | 1015.9 |
| 20260505025044 | 79 | 151 | 1.0 | 4.0 | 0.00 | 0.00 | 0.00 | 73 | 1016.0 |
| 20260505024553 | 78 | 179 | 1.0 | 5.0 | 0.00 | 0.00 | 0.00 | 73 | 1016.2 |
| 20260505024045 | 79 | 169 | 2.0 | 5.0 | 0.00 | 0.00 | 0.00 | 72 | 1016.1 |
| 20260505023542 | 80 | 83 | 1.0 | 3.0 | 0.00 | 0.00 | 0.00 | 72 | 1016.2 |
| 20260505023051 | 79 | 0 | 0.0 | 4.0 | 0.00 | 0.00 | 0.00 | 72 | 1016.4 |
| 20260505022542 | 78 | 291 | 1.0 | 4.0 | 0.00 | 0.00 | 0.00 | 73 | 1016.6 |
| 20260505022047 | 78 | 322 | 1.0 | 2.0 | 0.00 | 0.00 | 0.00 | 71 | 1016.6 |
| 20260505021549 | 78 | 278 | 0.0 | 2.0 | 0.00 | 0.00 | 0.00 | 73 | 1016.7 |
| 20260505021044 | 77 | 200 | 1.0 | 3.0 | 0.00 | 0.00 | 0.00 | 74 | 1016.9 |
| 20260505020548 | 77 | 175 | 0.0 | 3.0 | 0.00 | 0.00 | 0.00 | 76 | 1016.9 |
| 20260505020054 | 76 | 180 | 0.0 | 3.0 | 0.00 | 0.00 | 0.00 | 76 | 1016.6 |
| 20260505015544 | 76 | 0 | 1.0 | 5.0 | 0.00 | 0.00 | 0.00 | 76 | 1016.8 |
| 20260505015045 | 76 | 127 | 2.0 | 5.0 | 0.00 | 0.00 | 0.00 | 75 | 1017.0 |
| 20260505014603 | 77 | 185 | 3.0 | 5.0 | 0.00 | 0.00 | 0.00 | 76 | 1017.2 |
| 20260505014049 | 76 | 0 | 0.0 | 3.0 | 0.00 | 0.00 | 0.00 | 77 | 1017.2 |
| 20260505013545 | 77 | 0 | 1.0 | 3.0 | 0.00 | 0.00 | 0.00 | 76 | 1017.2 |
| 20260505013051 | 77 | 112 | 1.0 | 4.0 | 0.00 | 0.00 | 0.00 | 75 | 1017.3 |
| 20260505012545 | 76 | 263 | 0.0 | 4.0 | 0.00 | 0.00 | 0.00 | 78 | 1017.4 |
| 20260505012045 | 76 | 244 | 0.0 | 4.0 | 0.00 | 0.00 | 0.00 | 78 | 1017.5 |
| 20260505011552 | 76 | 0 | 0.0 | 4.0 | 0.00 | 0.00 | 0.00 | 78 | 1017.6 |
| 20260505011045 | 76 | 0 | 0.0 | 4.0 | 0.00 | 0.00 | 0.00 | 78 | 1017.6 |
| 20260505010545 | 77 | 0 | 1.0 | 4.0 | 0.00 | 0.00 | 0.00 | 76 | 1017.8 |
| 20260505010050 | 78 | 0 | 0.0 | 0.0 | 0.00 | 0.00 | 0.00 | 77 | 1017.9 |
| 20260505005542 | 77 | 0 | 0.0 | 0.0 | 0.00 | 0.00 | 0.00 | 80 | 1018.0 |
| 20260505005042 | 76 | 0 | 0.0 | 0.0 | 0.00 | 0.00 | 0.00 | 82 | 1018.0 |
| 20260505004556 | 74 | 0 | 0.0 | 2.0 | 0.00 | 0.00 | 0.00 | 85 | 1018.0 |
| 20260505004041 | 74 | 0 | 0.0 | 2.0 | 0.00 | 0.00 | 0.00 | 83 | 1018.1 |
| 20260505003541 | 74 | 236 | 0.0 | 7.0 | 0.00 | 0.00 | 0.00 | 83 | 1018.2 |
| 20260505003046 | 74 | 0 | 2.0 | 7.0 | 0.00 | 0.00 | 0.00 | 83 | 1018.1 |
| 20260505002546 | 75 | 176 | 1.0 | 5.0 | 0.00 | 0.00 | 0.00 | 83 | 1018.2 |
| 20260505002044 | 74 | 0 | 0.0 | 3.0 | 0.00 | 0.00 | 0.00 | 84 | 1018.3 |
| 20260505001553 | 74 | 0 | 0.0 | 0.0 | 0.00 | 0.00 | 0.00 | 84 | 1018.3 |
| 20260505001043 | 73 | 0 | 0.0 | 2.0 | 0.00 | 0.00 | 0.00 | 87 | 1018.3 |
| 20260505000542 | 73 | 0 | 0.0 | 3.0 | 0.00 | 0.00 | 0.00 | 86 | 1018.3 |
| 20260505000057 | 73 | 208 | 0.0 | 5.0 | 0.00 | 0.00 | 0.00 | 84 | 1018.4 |